Preview of NWS' New Version of Forecast
This preview is not operational and should not be used for support decisions.

Regional Weather Roundup (RWR)

Issued by National Weather Service (NWS)

                            
000
ASCA42 TJSJ 180110
RWRPR 
PUERTO RICO/U.S. VIRGIN ISLANDS HOURLY WEATHER ROUNDUP
NATIONAL WEATHER SERVICE SAN JUAN PR
900 PM AST FRI MAY 17 2019

PRZ001>002-007>008-010-180200-
PUERTO RICO
  
CITY           SKY/WX    TMP DP  RH WIND       PRES   REMARKS
SAN JUAN LMM   PTCLDY    81  73  78 E9        30.00R                  
AGUADILLA      PTCLDY    79  73  83 E15       30.00R                  
CEIBA          PTCLDY    82  73  74 E6        30.01R                  
$$

VIZ001>002-180200-
U.S. VIRGIN ISLANDS
  
CITY           SKY/WX    TMP DP  RH WIND       PRES   REMARKS
CHARLOTTE AMA  CLEAR     81  72  74 E8        29.99R                  
CHRISTIANSTED  CLEAR     79  72  78 NE7       30.00R                  
$$

HOURLY WEATHER ROUNDUP FOR THE NEWS MEDIA
  
CITY           SKY/WX    TMP DP  RH WIND       PRES   REMARKS
ORLANDO        FAIR      77  60  55 SE10      30.03R                  
NEW YORK       MOCLDY    64  59  83 S5        29.77R                  
NEWARK         MOCLDY    74  59  59 SW12      29.76R                  
CHICAGO        CLOUDY    47  35  63 NE12      29.95S                  
HARTFORD       FAIR      54  54 100 SW3       29.73S                  
BOSTON         MOCLDY    64  58  80 SW9       29.70R                  
DALLAS         MOCLDY    84  68  58 SE13      29.73S                  
PHILADELPHIA   MOCLDY    68  64  87 CALM      29.80R                  
LOS ANGELES    MOSUNNY   66  49  54 W23       29.95F                  
WASHINGTON DC  CLOUDY    75  60  59 NW5       29.85R